Tracking 19249 objects as of 16-Oct-2018
HD Live streaming from Space Station
objects crossing your sky now

INTELSAT 906

Track INTELSAT 906 now!
INTELSAT 906 is classified as:


NORAD ID: 27513
Int'l Code: 2002-041A
Perigee: 35,783.9 km
Apogee: 35,803.2 km
Inclination: 0.0 °
Period: 1,436.1 minutes
Semi major axis: 42164 km
RCS: 22.5892 m2 (large)
Launch date: September 6, 2002
Source: International Telecommunications Satellite Organization (ITSO)
Launch site: FRENCH GUIANA (FRGUI)

72 C-band, 22 Ku-band, broadcasting, business services, direct-to-home TV broadcasting, telecommunications, VSAT networks.
aabbcc
Your satellite tracking list
Your tracking list is empty




NASA's NSSDC Master Catalog

Two Line Element Set (TLE):
1 27513U 02041A   18288.80844653  .00000002  00000-0  00000+0 0  9991
2 27513   0.0241 241.8235 0002289 327.6477 170.0268  1.00272533 58885
Source of the keplerian elements: AFSPC